User: anonymous   Login
Location: Beddau
(51.5575°N, 3.3561°W)
Time: 04:52:19
(UTC+00:00)
Language:

USA 308 - Orbit

View from above orbital plane
View from above orbital plane
View from above satellite
View from above satellite

Ground track
Ground track

The orbit data is extracted from the following two-line orbital elements,

1 45876U 20046D   21124.93482116 0.00002100  00000-0  17427-3 0    06
2 45876  53.9774  94.4231 0005378 309.2269  50.7730 14.98329127    02
Epoch (UTC): 04 May 2021 22:26:08
Eccentricity: 0.0005378
inclination: 53.9774°
perigee height: 568 km
apogee height: 576 km
right ascension of ascending node: 94.4231°
argument of perigee: 309.2269°
revolutions per day: 14.98329127
mean anomaly at epoch: 50.7730°
orbit number at epoch: 0

The dashed part of the orbit path shows where the satellite is in the earth's shadow,  

DLR